5 May
2007
5 May
'07
2:53 a.m.
ISS 1 25544U 98067A 07124.68270509 .00017885 00000-0 10856-3 0 1434 2 25544 051.6339 328.6632 0010664 143.6648 302.9204 15.77550218483903
6340
Age (days ago)
6340
Last active (days ago)
0 comments
1 participants
participants (1)
-
Dave Larsen PhD